TimeCDT,TemperatureF,Dew PointF,Humidity,Sea Level PressureIn,VisibilityMPH,Wind Direction,Wind SpeedMPH,Gust SpeedMPH,PrecipitationIn,Events,Conditions,WindDirDegrees,DateUTC
12:53 AM,28.0,14.0,56,30.25,10.0,West,3.5,-,N/A,,Clear,280,2013-03-25 05:53:00
1:53 AM,27.0,16.0,63,30.26,10.0,WSW,5.8,-,N/A,,Clear,250,2013-03-25 06:53:00
2:53 AM,25.0,14.0,63,30.26,10.0,WNW,3.5,-,N/A,,Clear,290,2013-03-25 07:53:00
3:53 AM,27.0,15.1,61,30.26,10.0,NW,5.8,-,N/A,,Clear,320,2013-03-25 08:53:00
4:53 AM,27.0,16.0,63,30.27,10.0,NW,6.9,-,N/A,,Clear,310,2013-03-25 09:53:00
5:53 AM,26.1,16.0,66,30.28,10.0,NW,8.1,-,N/A,,Clear,320,2013-03-25 10:53:00
6:53 AM,30.0,17.1,59,30.30,10.0,NW,10.4,-,N/A,,Clear,320,2013-03-25 11:53:00
7:53 AM,28.9,18.0,64,30.33,10.0,NNW,11.5,-,N/A,,Clear,340,2013-03-25 12:53:00
8:53 AM,36.0,16.0,44,30.36,10.0,North,18.4,24.2,N/A,,Clear,350,2013-03-25 13:53:00
9:53 AM,37.9,12.9,36,30.39,10.0,North,17.3,-,N/A,,Clear,350,2013-03-25 14:53:00
10:53 AM,41.0,10.0,28,30.40,10.0,North,17.3,-,N/A,,Clear,360,2013-03-25 15:53:00
11:53 AM,44.1,10.0,25,30.40,10.0,North,17.3,-,N/A,,Clear,350,2013-03-25 16:53:00
12:53 PM,46.0,10.0,23,30.39,10.0,NNW,19.6,25.3,N/A,,Clear,340,2013-03-25 17:53:00
1:53 PM,48.0,10.9,22,30.35,10.0,NW,17.3,26.5,N/A,,Clear,320,2013-03-25 18:53:00
2:53 PM,48.9,12.0,23,30.33,10.0,North,19.6,25.3,N/A,,Clear,360,2013-03-25 19:53:00
3:53 PM,50.0,10.9,21,30.31,10.0,North,16.1,26.5,N/A,,Clear,10,2013-03-25 20:53:00
4:53 PM,51.1,12.0,21,30.30,10.0,NNW,15.0,24.2,N/A,,Clear,340,2013-03-25 21:53:00
5:53 PM,48.9,10.9,22,30.31,10.0,NNW,17.3,-,N/A,,Partly Cloudy,330,2013-03-25 22:53:00
6:53 PM,48.9,12.0,23,30.32,10.0,North,13.8,-,N/A,,Mostly Cloudy,350,2013-03-25 23:53:00
7:53 PM,44.1,12.9,28,30.34,10.0,NNE,8.1,-,N/A,,Partly Cloudy,20,2013-03-26 00:53:00
8:53 PM,37.0,12.9,37,30.35,10.0,North,8.1,-,N/A,,Clear,10,2013-03-26 01:53:00
9:53 PM,36.0,12.9,39,30.36,10.0,NNE,9.2,-,N/A,,Clear,20,2013-03-26 02:53:00
10:53 PM,34.0,12.9,42,30.38,10.0,NNE,9.2,-,N/A,,Clear,30,2013-03-26 03:53:00
11:53 PM,33.1,12.9,43,30.39,10.0,NE,5.8,-,N/A,,Clear,50,2013-03-26 04:53:00